Regional Weather Roundup
Issued by NWS State College, PA

Home | Current Version | Previous Version | Graphics & Text | Print | Product List | Glossary Off
Versions: 1 2 3 4 5 6 7 8 9 10 11 12 13 14 15 16 17 18 19 20 21 22 23 24 25 26 27 28 29 30 31 32 33 34 35 36 37 38 39 40 41 42 43 44 45 46 47 48 49 50

000
ASUS41 KCTP 181803
RWRCTP

REGIONAL WEATHER ROUNDUP
NATIONAL WEATHER SERVICE STATE COLLEGE PA
100 PM EST THU DEC 18 2014

Note: "fair" indicates few or no clouds below 12,000 feet with no
significant weather and/or obstructions to visibility.

* = STATION THAT DOES NOT REPORT PRECIPITATION /E.G. RAIN...SNOW...ETC/
    THUNDER OR FOG.

PAZ002>004-007>009-013>016-020>023-029>032-181900-
WESTERN PENNSYLVANIA

CITY           SKY/WX    TMP DP  RH WIND       PRES   REMARKS
ERIE           CLOUDY    33  25  72 W12G18    30.13F
MEADVILLE      CLOUDY    28  24  85 W8        30.11S FOG
FRANKLIN*      CLOUDY    27  21  80 W12       30.12F
NEW CASTLE       N/A     29  24  81 SW9       30.17F
BEAVER COUNTY  CLOUDY    28  23  80 W8        30.15F
BUTLER*        CLOUDY    28  21  74 W7        30.15F
PITTSBURGH INT FLURRIES  29  22  75 W10       30.16F
PITTSBURGH     CLOUDY    28  20  71 W9        30.15F FOG
INDIANA*       CLOUDY    28  25  86 W10       30.15F HAZE
LATROBE        LGT SNOW  28  25  86 SW9       30.18F
WASHINGTON CO*   N/A    N/A N/A N/A MISG        N/A
$$

PAZ004>006-010>012-017>019-024>028-033>037-041-042-045-046-049>053-181900-
CENTRAL PENNSYLVANIA

CITY           SKY/WX    TMP DP  RH WIND       PRES   REMARKS
BRADFORD       CLOUDY    27  23  85 NW14      30.01S FOG
DUBOIS         CLOUDY    26  24  92 W14       30.05F FOG     WCI  14
CLEARFIELD     CLOUDY    28  23  81 W10       30.07S
JOHNSTOWN      CLOUDY    24  19  81 W12       30.05F HAZE    WCI  13
ALTOONA        CLOUDY    30  22  72 W16       30.08F
STATE COLLEGE  CLOUDY    30  25  80 W14       30.07S
WILLIAMSPORT   CLOUDY    36  23  59 W10       30.03F
SELINSGROVE    CLOUDY    36  23  59 W6        30.07F
FT INDIANTOWN  CLOUDY    35  24  64 W13       30.07S
CAPITAL CITY   CLOUDY    36  22  56 NW15      30.10S
HARRISBURG     CLOUDY    36  23  59 NW15      30.08F
YORK           CLOUDY    36  22  56 W12       30.09F
$$

PAZ038>040-043-044-047-048-054-055-060>062-067>071-181900-
EASTERN PENNSYLVANIA

CITY           SKY/WX    TMP DP  RH WIND       PRES   REMARKS
SCRANTON       CLOUDY    35  24  64 NW10      29.98F
MOUNT POCONO   CLOUDY    30  22  72 NW14G20   29.91F
ALLENTOWN      CLOUDY    39  22  50 W12       30.00F
QUAKERTOWN*    CLOUDY    37  23  56 W10G17    30.01F
READING        CLOUDY    36  24  62 W14       30.04F
LANCASTER      CLOUDY    36  24  62 W15       30.06F
COATESVILLE    CLOUDY    37  27  65 NW16      30.05F
POTTSTOWN      CLOUDY    36  24  62 W10G21    30.04F
BLUE BELL      CLOUDY    37  27  65 W7G16     30.01F
DOYLESTOWN     CLOUDY    37  23  56 W10G20    29.99F
WILLOW GROVE   NOT AVBL
NORTH PHILA    CLOUDY    40  22  48 W12       30.04F
PHILADELPHIA   PTSUNNY   39  23  52 W15G21    30.05F
$$



USA.gov is the U.S. government's official web portal to all federal, state and local government web resources and services.